Starlink 11263

operational
NORAD ID: 60725 Int'l Des: 2024-152 Owner: SPXS Country: US Constellation: starlink
LEOCIRCULAR

Über Starlink 11263

Beschreibung wird geladen...

Live-Position

3D-Globus wird geladen...

Nächste Überflüge

Höhenverlauf

Altitude vs Time

uPlot chart will show altitude changes over time

Zweizeiliger Elementsatz

1 60725U 24152F 26037.80391652 -.00004912 00000-0 -35746-4 0 9993
2 60725 53.1596 268.5441 0001185 66.1410 293.9732 15.69684518 83980
Epoch: 6. Feb. 2026 • Age: 7 hours

Aktueller Status

Höhe 365.7 km
Geschwindigkeit 7.69 km/s
Subsatellitenpunkt -19.25°S, 69.12°W
Startdatum 28. Aug. 2024
Alter 1.4 years
Typ internet

Technische Details

Klassifizierung Payload
Masse 960.00 kg
Trockenmasse 910.00 kg
Gesamtmasse 960.00 kg
Länge 0.30 m
Durchmesser 4.10 m
Spannweite 29.00 m
Form Box + pan
Hersteller SPXS
Bus-Typ Starlink V2MD
Phasenstatus In Orbit
Besitzer/Staat SPXS/US

Große Konstellationen

Loading constellations...